Starlink 33948

operational
NORAD ID: 66147 Int'l Des: 2025-240 Owner: SPXS Country: US Constellation: starlink
LEOCIRCULAR

关于 Starlink 33948

正在加载描述...

实时位置

正在加载3D地球...

即将过境

高度历史

Altitude vs Time

uPlot chart will show altitude changes over time

两行轨道根数

1 66147C 25240C 25298.74284722 .00632550 00000+0 10341-2 0 2982
2 66147 53.1581 338.8141 0009103 271.0177 323.7885 16.01827467 14
Epoch: Oct 25, 2025 • Age: 155 hours

当前状态

高度 257.3 km
速度 7.75 km/s
星下点 -50.45°S, 32.81°E
发射日期 Oct 25, 2025
运行时间 5 days
类型 internet

技术详情

分类 Payload
质量 575.00 kg
干质量 530.00 kg
总质量 575.00 kg
长度 0.30 m
直径 4.10 m
跨度 29.00 m
形状 Box + pan
制造商 SPXS
平台类型 Starlink V2MO
阶段状态 In Orbit
所有者/国家 SPXS/US

大型星座

Loading constellations...